Location: Yoder Observing Site
(32.2942°N, 83.9813°W)
Time: 18:49:54
(UTC-05:00)

Hubble Space Telescope - Visible Passes

Search period start: 22 January 2018 00:00
Search period end: 01 February 2018 00:00
Orbit: 537 x 541 km, 28.5° (Epoch: 22 January)

Date Brightness Start Highest point End Pass type
(mag) Time Alt. Az. Time Alt. Az. Time Alt. Az.
22 Jan 2.7 19:03:40 10° SSW 19:06:34 19° SSE 19:08:34 14° SE visible
22 Jan 3.8 20:43:29 10° WSW 20:43:55 13° WSW 20:43:55 13° WSW visible
23 Jan 2.5 18:52:59 10° SSW 18:56:14 22° SSE 18:58:58 12° ESE visible
23 Jan 3.4 20:33:08 10° WSW 20:34:20 18° WSW 20:34:20 18° WSW visible
24 Jan 2.3 18:42:25 10° SW 18:45:54 26° SSE 18:49:21 10° ESE visible
24 Jan 2.8 20:22:49 10° WSW 20:24:44 25° WSW 20:24:44 25° WSW visible
25 Jan 2.1 18:31:56 10° SW 18:35:35 31° SSE 18:39:15 10° ESE visible
25 Jan 2.3 20:12:31 10° WSW 20:15:07 33° SW 20:15:07 33° SW visible
26 Jan 1.9 18:21:30 10° SW 18:25:16 35° SSE 18:29:04 10° E visible
26 Jan 1.7 20:02:15 10° WSW 20:05:31 44° SW 20:05:31 44° SW visible
27 Jan 1.3 19:51:59 10° WSW 19:55:55 49° S 19:55:55 49° S visible
28 Jan 1.3 19:41:43 10° W 19:45:41 47° S 19:46:21 42° SSE visible
29 Jan 1.6 19:31:28 10° W 19:35:24 43° S 19:36:50 31° SE visible
30 Jan 1.8 19:21:15 10° W 19:25:06 39° S 19:27:23 21° SE visible
31 Jan 2.0 19:11:02 10° W 19:14:48 35° SSW 19:18:00 13° SE visible
31 Jan 4.0 20:53:21 10° SW 20:53:22 10° SW 20:53:22 10° SW visible
